SCP
0 0 0 0 0 0 0 0 0 0 0 0 0 0 0 0 0 0 0 0 0 0 0 1 1 1 1 1 1 1 0 0 0 0 0 0 0 0 0 0 0 0 0 0
0 0 0 0 0 0 0 0 0 0 0 0 0 0 0 0 0 0 0 0 0 1 1 1 1 1 1 1 1 1 0 0 0 0 0 0 0 0 0 0 0 0 0 0
0 0 0 0 0 0 0 0 0 0 0 0 0 0 0 0 0 0 0 1 1 1 1 1 1 1 1 1 1 1 0 0 0 0 0 0 0 0 0 0 0 0 0 0
0 0 0 0 0 0 0 0 0 0 0 0 0 0 0 0 0 0 0 1 1 1 1 1 1 1 1 1 1 1 0 0 0 0 0 0 0 0 0 0 0 0 0 0
0 0 0 0 0 0 0 0 0 0 0 0 0 0 0 0 0 0 0 1 1 1 1 1 1 1 1 1 0 0 0 0 0 0 0 0 0 0 0 0 0 0 0 0
0 0 0 0 0 0 0 0 0 0 0 0 0 0 0 0 0 0 0 1 1 1 1 1 1 1 1 0 0 0 0 0 0 0 0 0 0 0 0 0 0 0 0 0
0 0 0 0 0 0 0 0 0 0 0 0 0 0 0 0 0 0 0 1 1 1 1 1 1 1 1 0 0 0 0 0 0 0 0 0 0 0 0 0 0 0 0 0
0 0 0 0 0 0 0 0 0 0 0 0 0 0 0 0 0 0 0 0 1 1 1 1 1 1 0 0 0 0 0 0 0 0 0 0 0 0 0 0 0 0 0 0
0 0 0 0 0 0 0 0 0 0 0 0 0 0 0 0 0 0 0 0 1 0 1 1 1 1 0 0 0 0 0 0 0 0 0 0 0 0 0 0 0 0 0 0
0 0 0 0 0 0 0 0 0 0 0 0 0 0 0 0 0 0 0 0 0 0 1 1 1 1 0 0 0 0 0 0 0 0 0 0 0 0 0 0 0 0 0 0
0 0 0 0 0 0 0 0 0 0 0 0 0 0 0 0 0 0 0 0 0 0 1 1 1 1 0 0 0 0 0 0 0 0 0 0 0 0 0 0 0 0 0 0
0 0 0 0 0 0 0 0 0 0 0 0 0 0 0 0 0 0 0 0 0 0 1 1 1 0 0 0 0 0 0 0 0 0 0 0 0 0 0 0 0 0 0 0
0 0 0 0 0 0 0 0 0 0 0 0 0 0 0 0 0 0 0 0 0 0 0 0 0 0 0 0 0 0 0 0 0 0 0 0 0 0 0 0 0 0 0 0
0 0 0 0 0 0 0 0 0 0 0 0 0 0 0 0 0 0 0 0 0 0 0 0 0 0 0 0 0 0 0 0 0 0 0 0 0 0 0 0 0 0 0 0
0 0 0 0 0 0 0 0 0 0 0 0 0 0 0 0 0 0 0 0 0 0 1 1 0 0 0 0 0 0 0 0 0 0 0 0 0 0 0 0 0 0 0 0
0 0 0 0 0 0 0 0 0 0 0 0 0 0 0 0 0 0 0 0 0 1 1 1 1 0 0 0 0 0 0 0 0 0 0 0 0 0 0 0 0 0 0 0
0 0 0 0 0 0 0 0 0 0 0 0 0 0 0 0 0 0 0 1 1 1 1 1 1 0 0 0 0 0 0 0 0 0 0 0 0 0 0 0 0 0 0 0
0 0 0 0 0 0 0 0 0 0 0 0 0 0 0 0 0 0 0 0 0 0 0 0 0 0 0 0 0 0 0 0 0 0 0 0 0 0 0 0 0 0 0 0
0 0 0 0 0 0 0 0 0 0 0 0 0 0 0 0 0 0 0 0 0 0 0 0 0 0 0 0 0 0 0 0 0 0 0 0 0 0 0 0 0 0 0 0
0 0 0 0 0 0 0 0 0 0 0 0 0 0 0 0 0 0 0 0 0 0 0 0 0 0 0 0 0 0 0 0 0 0 0 0 0 0 0 0 0 0 0 0
0 0 0 0 0 0 0 0 0 0 0 0 0 0 0 0 0 0 0 0 0 0 0 0 0 0 0 0 0 0 0 0 0 0 0 0 0 0 0 0 0 0 0 0
0 0 0 0 0 0 0 0 0 0 0 0 0 0 0 0 0 0 0 0 0 0 0 0 0 0 0 0 0 0 0 0 0 0 0 0 0 0 0 0 0 0 0 0
0 0 0 0 0 0 0 0 0 0 0 0 0 0 0 0 0 0 0 0 0 0 0 0 0 0 0 0 0 0 0 0 0 0 0 0 0 0 0 0 0 0 0 0
0 0 0 0 0 0 0 0 0 0 0 0 0 0 0 0 0 0 0 0 0 0 0 0 0 0 0 0 0 0 0 0 0 0 0 0 0 0 0 0 0 0 0 0
0 0 0 0 0 0 0 0 0 0 0 0 0 0 0 0 0 0 0 0 0 0 0 0 0 0 0 0 0 0 0 0 0 0 0 0 0 0 0 0 0 0 0 0
0 0 0 0 0 0 0 0 0 0 0 0 0 0 0 0 0 0 0 0 0 0 0 0 0 0 0 0 0 0 0 0 0 0 0 0 0 0 0 0 0 0 0 0
Wind_Speed
3 4 3 5 5 4 2 0 4 6 4 1 1 2 1 2 4 5 6 6 7 6 5 5 6 7 8 8 9 9 9 8 7 5 5 4 4 3 3 4 5 5 5 5
5 2 5 4 4 2 1 2 4 6 4 1 1 2 2 1 4 5 7 6 6 5 4 5 6 7 8 9 9 9 9 8 8 6 4 3 3 3 3 2 3 5 5 5
5 4 3 4 3 2 2 3 4 3 5 5 3 5 3 1 0 1 3 5 6 8 8 7 7 7 7 8 8 8 8 8 7 6 4 3 2 2 2 2 3 4 5 5
4 5 2 2 3 5 4 5 5 2 2 3 2 1 5 2 2 3 4 5 7 7 7 7 7 7 8 7 7 6 7 7 6 6 6 6 5 4 5 4 3 3 4 5
6 3 4 5 6 8 6 0 1 0 2 1 3 2 7 2 4 7 7 7 7 7 7 8 8 8 7 6 6 6 6 6 6 6 7 6 4 3 2 3 4 3 3 3
5 3 4 6 4 6 3 5 6 6 5 1 2 2 7 4 7 6 5 6 6 6 7 6 5 6 5 5 5 5 6 5 6 6 6 6 6 5 4 4 4 3 2 2
2 3 3 4 1 2 4 6 5 5 5 4 3 2 9 7 7 7 7 6 7 7 7 7 7 6 6 7 6 6 6 6 6 6 6 6 6 6 6 5 5 4 3 3
4 5 5 5 7 6 5 9 8 5 4 4 3 4 8 5 5 4 5 5 6 7 7 7 7 7 7 7 7 6 6 5 6 6 5 4 5 4 3 4 4 4 4 4
7 6 5 4 5 10 7 4 7 8 3 0 5 7 9 2 2 1 3 6 7 8 8 7 7 7 6 7 7 6 6 5 5 5 4 4 4 4 4 4 4 3 3 3
9 3 4 2 4 3 6 10 7 7 6 2 4 4 6 6 4 2 4 6 6 6 6 7 7 7 6 6 5 5 5 5 4 4 4 3 3 3 3 3 4 4 4 3
7 5 3 2 4 7 5 5 6 6 6 7 3 8 8 8 6 6 7 6 6 7 7 7 6 6 6 5 5 5 5 4 4 3 3 3 2 2 2 2 3 3 3 3
6 6 3 6 4 3 5 8 9 7 4 5 5 10 6 6 5 6 5 4 5 6 6 6 6 6 6 6 5 5 4 4 4 3 3 3 2 2 2 1 2 2 3 3
8 8 2 6 5 1 3 5 5 7 7 6 5 9 4 1 2 3 5 5 5 6 6 6 6 6 6 5 5 5 4 4 4 4 4 3 2 2 2 1 1 2 2 2
8 6 8 10 9 5 4 5 6 8 6 6 8 9 6 4 4 4 5 6 6 6 7 6 6 5 5 5 5 5 4 4 4 4 4 3 2 2 1 1 1 1 2 2
6 5 5 5 4 4 4 6 8 7 9 10 10 9 11 9 7 6 6 7 7 7 7 7 6 6 5 5 4 4 4 4 4 4 3 2 2 2 2 2 2 2 2 2
4 4 3 1 2 4 2 4 7 5 5 5 4 8 7 2 4 5 7 8 8 8 8 7 7 6 5 5 5 4 4 4 4 4 3 2 2 2 2 2 2 2 2 1
2 5 4 2 1 4 2 4 5 4 4 7 8 8 3 4 7 9 9 9 9 9 8 8 7 6 5 4 5 4 4 4 4 4 3 3 3 2 2 2 2 2 2 2
5 5 4 2 3 4 7 2 3 4 2 3 4 3 5 6 4 3 4 8 8 8 8 8 7 6 4 4 4 4 5 4 4 4 3 3 3 2 2 2 2 2 2 2
4 7 5 4 3 2 3 0 2 3 2 2 3 2 3 6 5 2 1 4 5 5 6 6 6 6 6 6 5 6 6 5 4 3 3 3 3 3 2 2 2 2 3 3
4 5 6 4 4 5 6 2 1 3 2 2 4 5 6 6 4 3 3 6 6 7 6 7 7 7 7 5 6 7 6 5 4 3 3 4 4 4 3 2 2 3 3 3
4 4 4 4 3 6 4 5 0 4 7 3 4 6 7 4 4 5 7 8 8 8 8 8 8 7 6 5 6 6 6 5 4 4 4 5 5 4 4 3 3 4 4 4
3 3 3 4 4 6 3 2 3 5 2 2 3 4 5 6 7 9 9 9 10 9 8 8 8 7 5 5 6 6 5 5 5 6 6 6 5 4 4 5 4 4 4 5
2 4 4 5 6 4 2 3 4 2 2 2 3 4 8 9 8 9 9 8 8 8 8 7 8 8 6 5 5 6 4 4 6 7 6 5 6 5 5 5 5 4 4 4
1 1 2 1 3 3 3 3 3 1 1 2 5 7 8 9 9 10 8 8 8 7 7 7 8 8 6 5 5 5 4 5 6 7 5 5 6 6 6 5 4 4 4 4
3 2 2 2 3 3 3 4 3 3 4 6 6 6 7 9 9 8 8 8 7 6 6 6 7 7 7 6 6 5 4 6 7 7 6 6 6 6 6 7 6 5 5 4
3 5 5 5 5 3 2 2 1 3 5 6 7 6 6 7 8 8 7 7 7 7 6 7 7 7 7 7 6 5 4 5 7 6 6 5 5 5 5 7 8 15 12 14
Wind_Direction
70 82 186 204 181 170 148 275 291 275 287 316 266 277 265 148 152 169 180 180 181 189 185 162 167 169 163 169 174 181 182 177 169 165 169 175 189 188 193 197 194 188 187 181
51 258 221 170 161 160 172 300 296 301 339 44 40 359 331 156 193 186 187 186 180 176 170 165 164 167 172 177 178 179 182 178 179 180 173 170 164 181 190 195 192 190 188 185
172 229 164 153 169 188 229 215 242 275 342 20 58 355 340 327 15 174 186 181 180 185 186 180 173 175 170 176 182 183 183 181 181 171 148 131 118 121 156 189 202 202 192 192
215 242 196 189 207 172 255 229 212 244 33 330 39 288 291 285 286 242 218 194 191 189 181 176 175 176 178 181 178 176 176 178 175 167 168 168 176 185 195 190 193 194 194 197
221 206 186 212 215 175 215 164 140 122 137 30 17 128 284 306 258 247 226 209 194 187 177 179 183 180 177 172 171 169 166 174 173 175 180 180 186 190 178 167 176 191 197 203
220 222 199 207 204 183 162 69 53 47 70 39 288 170 275 242 228 242 224 207 188 179 172 172 164 152 156 157 161 165 168 175 175 180 185 189 187 180 175 180 184 193 198 204
264 260 231 187 122 61 108 88 35 9 19 259 291 220 252 255 238 227 224 206 178 171 162 157 156 158 161 165 168 167 172 178 180 184 192 197 194 187 193 192 192 193 197 202
183 266 234 193 177 171 163 137 152 182 209 272 319 243 259 270 276 243 206 180 162 164 160 161 166 169 173 172 170 170 175 182 182 186 194 196 192 192 199 196 191 196 203 205
174 242 277 230 188 145 137 164 152 125 143 343 291 292 302 307 339 71 149 159 172 169 163 163 163 171 174 171 173 176 174 178 182 185 183 187 190 190 194 197 196 197 199 197
154 208 283 299 98 52 138 141 108 119 141 218 290 284 258 268 255 219 183 181 178 163 159 158 161 168 168 161 157 159 164 171 173 172 180 187 192 195 188 180 190 191 193 189
141 161 294 10 172 169 111 105 106 109 142 151 219 267 232 228 219 209 210 194 176 168 163 159 160 158 147 137 140 147 153 150 152 161 162 165 172 173 168 182 190 187 187 184
153 135 224 259 260 180 160 162 146 147 189 166 167 261 265 235 219 201 201 185 164 156 150 149 149 143 141 144 146 152 156 148 150 149 141 148 145 142 156 183 185 173 178 181
142 127 120 334 336 159 168 163 149 121 118 148 165 259 296 283 209 187 182 171 156 150 142 137 139 147 151 153 154 155 157 153 147 141 136 133 133 141 165 187 173 163 168 170
124 126 162 190 210 192 175 162 146 127 143 183 212 242 278 257 226 197 175 168 158 152 145 142 145 149 150 150 155 156 156 152 146 139 138 141 152 155 158 151 142 149 153 153
115 153 191 210 206 175 183 173 165 171 176 178 218 222 243 228 213 194 170 162 153 150 151 154 152 149 147 147 149 153 152 147 145 140 137 147 138 122 108 103 115 118 129 148
85 140 154 215 218 190 203 197 174 184 177 199 211 245 249 206 150 161 170 168 166 164 160 153 147 146 151 158 156 150 147 147 141 139 140 131 118 113 109 105 108 106 105 108
90 112 114 217 263 120 222 218 180 177 188 175 201 231 183 167 180 184 179 175 174 166 157 155 156 156 153 151 150 149 146 136 130 129 125 123 124 123 123 115 105 108 111 106
132 112 119 125 111 185 239 258 167 153 192 208 223 231 191 186 166 153 165 171 171 166 161 157 151 143 131 121 123 124 119 121 122 119 117 116 119 117 105 100 102 105 99 97
144 131 115 117 146 245 289 259 143 150 242 218 197 192 137 116 86 38 163 158 161 155 142 136 134 130 122 120 126 120 115 112 109 109 112 115 118 114 107 107 105 101 97 88
62 94 112 120 138 207 235 278 245 125 274 235 183 173 155 131 143 219 142 119 114 106 107 110 108 104 106 111 119 116 113 111 106 98 100 103 105 106 105 104 97 91 94 93
48 58 111 138 170 250 260 295 293 157 232 219 184 173 161 172 179 138 119 109 107 104 104 107 106 102 101 105 111 112 110 105 97 95 95 91 89 92 89 85 84 90 91 89
151 137 159 141 161 239 310 358 173 219 257 163 162 157 134 116 109 109 110 111 109 106 103 105 103 95 89 95 107 109 107 102 99 97 92 86 81 82 82 84 79 83 91 88
180 184 182 185 206 251 294 271 283 246 195 174 147 136 130 124 121 116 112 109 105 108 107 104 107 98 83 81 99 108 99 99 100 95 90 86 82 76 76 82 81 80 81 89
274 149 141 255 274 294 315 322 332 334 182 141 134 133 134 130 129 124 121 117 114 109 112 113 112 108 94 78 76 90 98 99 101 99 94 92 91 83 72 66 66 76 78 87
236 166 140 261 279 323 344 356 351 41 80 100 103 109 126 128 128 126 125 120 115 110 106 109 111 109 101 91 85 84 93 103 103 99 95 92 89 92 81 69 55 61 53 72
213 183 173 214 226 199 256 319 12 82 87 100 102 93 94 111 117 114 110 107 108 109 107 105 102 103 100 97 90 83 88 102 109 106 101 97 97 96 98 95 76 56 64 65